Temperature
29 29 30 29 29 29 29 30 30 30 30 30 30 29 27 26 25 24 23 22 21 21 20 20 19 19 19 19 19 18 18 18 18 17 17 17 17 16 16 16 16 15 15 15
27 28 29 29 29 29 29 30 30 30 30 30 29 28 26 25 25 24 23 22 21 20 20 19 19 19 19 19 19 18 18 18 17 17 17 16 16 16 16 16 15 15 15 15
27 28 28 28 29 29 29 30 30 30 30 29 28 27 26 25 24 24 23 21 21 20 20 20 19 19 19 19 19 18 17 17 17 16 16 16 16 16 16 15 15 15 14 14
27 26 26 28 29 29 29 29 30 30 29 29 28 26 25 24 24 23 22 21 20 20 20 19 19 19 19 19 18 17 17 17 16 16 16 15 15 15 15 15 15 14 14 14
27 26 27 27 28 28 28 28 29 29 28 27 26 25 25 23 23 22 21 21 20 20 20 19 19 19 19 18 17 17 17 16 16 16 15 15 15 15 15 14 14 14 13 13
26 26 26 27 28 27 28 27 27 27 27 26 26 28 26 22 22 21 21 20 20 20 19 19 19 18 18 17 17 17 16 16 16 15 15 15 15 15 14 14 14 13 13 13
26 26 27 27 26 26 27 27 26 26 26 25 26 26 23 22 21 20 20 20 19 19 19 19 18 18 17 17 16 16 16 16 15 15 15 15 15 14 14 14 13 13 13 12
25 26 26 25 26 27 25 24 24 24 24 24 23 22 21 21 20 20 19 19 19 19 19 18 18 18 17 16 16 16 16 15 15 15 14 14 14 14 14 13 13 12 12 12
25 25 23 23 24 22 22 22 22 23 22 22 22 21 21 20 19 19 19 18 18 18 18 18 17 17 17 16 16 16 15 15 15 14 14 14 14 13 13 13 12 12 12 12
23 23 22 21 21 21 21 21 21 21 21 21 21 21 20 19 19 18 18 18 18 17 17 17 17 17 17 16 16 15 15 14 14 14 13 13 13 13 13 12 12 12 12 11
22 22 21 21 20 20 20 20 20 21 21 20 20 20 19 18 18 18 17 17 17 17 17 17 17 16 16 16 15 15 15 14 14 13 13 13 13 12 12 12 12 12 11 11
23 21 22 21 19 19 19 20 20 20 20 19 19 19 18 18 17 17 17 17 17 17 16 16 16 16 16 16 15 15 14 14 13 13 13 13 12 12 12 12 12 12 11 11
19 19 19 18 18 19 19 19 19 19 19 19 18 18 17 17 17 16 16 16 16 16 16 16 16 16 15 15 15 14 14 13 13 13 13 12 12 12 12 11 11 11 11 11
17 17 18 18 18 18 18 18 18 18 18 18 17 17 17 17 16 16 16 16 16 16 16 15 15 15 15 15 14 14 13 13 13 13 12 12 12 12 12 11 11 10 10 10
17 17 17 17 17 17 17 17 17 17 17 17 17 16 16 16 16 16 15 16 15 15 15 15 15 15 14 14 14 13 13 13 13 12 12 12 12 12 11 11 11 10 10 10
16 17 17 17 17 17 17 17 17 17 17 16 16 16 16 16 16 15 15 15 15 15 15 15 15 14 14 14 13 13 13 13 13 12 12 12 12 12 11 11 11 11 10 10
16 16 16 16 16 16 17 16 16 16 16 16 16 15 15 15 15 15 15 15 15 14 14 14 14 14 14 13 13 13 13 12 12 12 12 12 11 11 11 11 11 10 10 9
15 16 16 16 16 16 16 16 15 15 15 15 15 15 15 15 15 15 14 14 14 14 14 14 14 14 13 13 13 13 12 12 12 12 12 11 11 11 11 11 11 10 10 9
15 15 15 15 15 15 15 15 15 15 14 14 14 14 14 14 14 14 14 14 14 14 14 14 13 13 13 13 13 12 12 12 12 11 11 11 11 11 11 10 10 10 10 9
14 14 14 14 14 14 14 14 14 14 14 14 14 14 14 13 13 13 13 13 13 13 13 13 13 13 12 12 12 12 12 12 11 11 11 11 10 10 10 10 10 10 9 9
13 13 13 13 13 13 13 13 13 13 13 13 13 13 13 13 13 13 13 13 12 12 12 13 12 12 12 12 12 12 11 11 11 11 11 11 10 10 10 10 10 9 9 9
13 13 13 13 13 13 13 13 13 13 13 13 13 13 13 12 12 12 12 12 12 12 12 12 12 12 12 12 11 11 11 11 11 11 10 10 10 10 10 9 9 9 9 9
12 12 12 12 12 12 12 12 12 12 12 12 12 12 12 12 12 12 12 12 12 12 12 12 12 12 11 11 11 11 11 11 11 10 10 10 10 10 10 9 9 9 9 8
12 12 11 12 12 12 12 12 12 12 12 12 12 12 12 11 11 11 11 11 11 11 11 11 11 11 11 11 11 11 10 10 10 10 10 10 10 9 9 9 9 9 9 8
11 11 11 11 11 11 11 11 11 11 11 11 11 11 11 11 11 11 11 11 11 11 11 11 11 10 10 10 10 10 10 10 10 10 10 10 10 9 9 9 9 9 9 8
11 11 11 11 11 11 11 11 11 11 11 11 10 10 11 11 11 10 10 10 10 10 10 10 10 10 10 10 10 10 10 9 9 9 9 9 9 9 9 9 8 8 8 8
10 10 10 10 10 11 11 11 10 10 10 10 10 10 10 10 10 10 10 10 10 10 10 9 9 10 9 9 9 9 9 9 9 9 9 9 9 9 9 8 8 8 8 8
Wind_Speed
9 5 11 15 17 17 17 14 12 9 8 5 4 4 6 7 9 10 11 11 11 11 10 10 9 8 8 8 7 6 6 6 5 5 5 4 4 4 4 3 3 4 4 4
11 9 10 12 15 16 16 14 13 10 7 2 3 4 6 8 9 10 10 10 11 11 11 10 10 9 9 8 8 7 6 6 5 5 5 5 5 5 5 5 5 5 5 5
12 11 11 14 14 15 14 13 12 11 7 4 5 6 7 8 9 9 10 10 11 11 11 11 10 10 9 9 8 7 6 6 6 5 5 5 5 5 5 5 5 5 5 6
10 11 14 8 6 10 11 11 10 8 5 5 4 4 4 6 8 8 9 10 10 10 11 11 10 10 9 9 9 8 7 6 6 5 5 5 5 6 5 5 5 6 6 6
11 14 11 6 6 9 10 9 7 7 5 5 6 6 5 5 6 8 9 9 9 10 11 11 11 11 10 9 9 8 7 7 6 6 6 5 5 5 5 6 6 6 6 7
11 14 13 9 8 6 8 9 6 6 6 7 8 8 5 6 7 8 9 9 10 10 11 11 11 11 11 10 9 8 7 7 6 6 6 6 6 6 6 6 6 7 8 7
13 12 8 5 7 8 11 5 5 5 6 7 6 1 5 8 8 9 10 11 11 11 11 11 11 11 10 9 8 8 8 7 6 6 6 6 6 6 6 6 7 8 8 7
13 13 8 5 7 7 1 4 3 3 4 4 4 5 7 8 9 10 11 11 12 11 10 10 11 11 10 9 9 9 8 8 8 7 6 6 7 7 6 7 8 7 7 7
6 4 5 4 3 3 2 2 2 2 3 4 6 6 7 7 8 9 10 10 10 11 11 10 10 10 10 9 9 10 10 9 8 8 6 6 7 7 6 5 5 5 5 6
4 4 5 4 3 2 2 1 1 2 3 5 6 7 7 7 7 9 9 10 10 11 10 9 9 9 9 10 10 10 10 9 8 8 7 7 5 5 4 4 4 4 5 5
5 5 5 4 3 3 3 2 3 3 4 5 6 6 6 7 7 8 8 9 9 9 9 10 9 9 9 10 10 10 9 9 8 7 8 7 5 4 3 4 3 2 4 4
5 5 3 4 2 2 2 3 3 4 4 4 5 6 6 6 7 7 8 8 8 9 9 10 10 9 9 9 10 9 9 8 7 7 7 7 7 7 11 9 10 10 9 5
2 2 2 2 1 2 2 3 3 3 4 4 4 5 6 6 7 7 8 8 8 9 9 9 9 9 9 9 9 9 8 7 6 6 7 7 7 7 7 6 8 9 8 8
3 3 3 2 2 2 3 3 4 4 3 4 4 5 6 7 7 8 8 8 8 8 8 9 9 9 8 9 8 8 8 8 7 6 6 6 7 6 6 7 7 6 6 7
2 2 2 2 3 3 3 3 4 4 4 4 5 5 6 7 7 7 7 8 8 8 8 8 8 8 8 8 8 8 8 7 6 6 6 6 6 6 6 6 6 6 7 6
3 3 3 3 3 3 3 3 3 3 4 4 4 5 6 7 7 7 7 8 8 8 8 7 7 7 8 8 8 7 6 7 7 6 6 7 6 6 6 6 6 6 5 5
5 5 4 4 3 3 2 2 3 3 3 4 4 5 6 7 7 7 7 7 7 7 7 7 7 7 8 8 8 7 7 8 8 7 6 6 6 6 6 6 6 5 5 4
5 5 5 4 4 3 2 3 3 3 3 3 4 5 6 7 7 7 7 7 7 7 6 6 6 7 7 7 7 6 7 8 7 6 6 6 6 5 5 5 6 6 5 6
5 5 5 4 4 3 3 3 3 3 3 4 5 5 5 6 6 7 7 8 8 7 6 7 7 7 7 7 7 7 7 8 7 6 6 6 6 5 5 5 5 5 5 5
4 5 4 4 3 4 4 3 3 3 3 4 5 5 5 6 6 7 7 6 5 4 7 7 8 7 7 7 6 7 7 8 7 7 6 6 5 5 5 5 5 5 4 4
4 4 5 4 3 3 4 4 4 4 4 4 5 5 5 6 6 6 6 5 5 6 7 7 6 6 6 6 7 6 7 7 7 6 6 6 6 5 5 5 4 4 4 4
3 4 4 4 3 3 3 4 4 4 4 4 5 5 6 6 6 5 4 4 5 5 5 5 5 6 5 6 6 6 7 7 6 6 6 5 5 5 5 5 4 4 4 4
3 3 4 3 3 3 3 4 4 4 4 5 5 5 6 5 5 5 5 4 5 5 5 5 6 7 6 6 5 6 6 7 6 6 6 6 5 5 5 5 4 4 4 4
3 3 3 3 4 4 4 4 4 4 5 5 5 5 5 5 4 4 5 6 6 6 5 7 9 8 6 5 5 6 6 6 6 6 6 6 5 5 4 4 4 4 4 4
3 4 4 4 4 4 5 5 5 6 5 5 5 5 4 4 5 5 6 7 8 8 7 7 8 7 6 5 5 6 6 5 5 4 5 5 5 5 4 4 3 3 3 3
3 3 3 3 3 4 4 4 4 4 5 5 4 4 4 5 6 6 6 8 9 7 7 6 7 7 6 6 6 6 6 6 6 5 5 5 4 4 4 3 4 3 3 3
4 4 3 3 4 3 3 4 4 4 4 5 5 5 5 6 6 7 8 8 7 7 6 6 6 6 5 5 6 6 5 5 5 4 4 4 4 4 4 4 2 2 2 2
Wind_Direction
234 216 198 202 202 206 218 229 235 228 236 228 198 178 166 160 156 156 157 159 158 155 149 147 145 143 139 134 131 130 130 126 124 128 125 122 119 112 106 106 105 97 92 85
212 208 208 209 208 208 216 225 234 236 228 206 167 162 168 168 167 165 163 161 160 157 152 151 150 147 141 136 136 136 132 127 125 126 130 125 118 112 105 99 93 92 88 83
205 198 206 214 210 208 213 220 227 230 223 181 175 181 184 178 176 169 164 163 161 161 159 156 154 149 144 139 137 135 132 129 131 132 128 122 118 110 105 102 99 95 89 86
205 195 215 205 190 206 212 217 223 232 221 208 189 172 172 179 177 171 164 163 160 160 159 156 152 148 144 140 139 138 136 134 133 132 126 122 114 106 105 105 101 98 94 91
211 209 207 181 188 200 204 207 209 218 207 183 158 156 153 164 174 170 163 159 157 157 154 151 149 148 145 144 143 142 140 140 139 136 131 127 118 112 113 112 107 102 97 92
214 220 216 194 171 191 205 206 190 204 194 178 183 204 164 145 153 154 150 149 147 146 145 146 149 148 149 148 147 144 141 139 136 135 133 129 121 115 113 113 110 105 97 90
214 218 215 145 156 180 208 188 155 186 188 187 197 236 123 138 140 144 145 146 144 143 142 144 147 150 151 148 145 140 136 132 131 130 130 127 120 112 116 117 110 103 101 95
212 218 200 138 175 194 137 80 125 162 173 173 143 120 131 132 137 143 145 147 148 145 142 143 148 149 147 145 139 136 135 133 134 135 134 128 121 117 117 119 119 115 113 107
209 201 90 132 133 95 93 98 110 147 156 154 147 141 137 133 138 143 145 148 149 144 142 145 149 149 144 142 139 137 133 130 128 127 124 125 126 128 129 133 132 129 127 120
163 140 127 123 112 99 79 72 80 143 148 150 145 140 139 137 138 142 145 147 148 146 145 144 148 147 141 141 143 142 137 134 133 132 127 121 123 130 134 135 135 133 130 124
173 146 138 135 112 86 74 79 97 109 124 136 138 138 140 140 141 143 145 146 148 149 148 146 148 148 147 147 149 146 143 141 141 138 131 123 109 82 98 83 66 95 124 128
185 158 172 144 118 93 92 95 102 106 114 125 134 137 138 138 140 143 143 143 144 146 146 147 148 148 149 151 153 152 150 150 148 145 141 138 128 108 59 65 68 58 45 57
115 124 117 126 123 108 109 104 105 107 119 128 127 130 133 135 139 141 142 146 147 148 147 146 147 148 151 153 156 157 154 151 148 148 149 148 144 140 132 103 81 72 66 67
131 126 137 143 125 113 114 111 106 107 121 130 131 132 135 138 141 143 146 146 146 146 146 147 148 150 154 157 159 159 157 150 153 156 157 155 151 150 148 147 144 133 106 102
187 184 170 158 149 137 135 127 117 122 130 131 136 143 147 147 146 145 145 144 145 146 147 149 150 149 154 158 161 162 161 158 156 153 153 153 153 154 151 150 145 141 139 133
194 179 171 173 171 167 166 155 148 151 150 147 148 149 148 146 144 143 147 151 151 151 149 149 147 148 153 156 158 157 154 145 152 155 158 159 160 159 155 155 153 152 153 147
207 199 192 191 195 194 186 174 168 167 163 156 150 146 147 147 145 147 153 152 147 145 148 149 146 147 153 159 161 156 152 153 161 163 160 160 160 163 163 164 160 158 150 133
225 224 216 208 207 200 189 181 173 170 166 162 155 152 155 159 156 153 151 145 141 141 145 146 144 149 153 159 161 157 157 160 166 164 159 160 163 166 164 160 159 156 149 147
209 207 205 208 208 203 203 195 185 174 163 161 163 160 157 154 152 152 151 151 153 154 152 143 141 152 153 156 159 161 159 157 157 155 152 152 164 162 157 158 159 159 156 154
198 197 199 203 198 193 189 181 175 172 164 158 159 160 156 155 154 156 156 157 159 151 145 146 153 149 150 158 171 161 161 161 159 157 156 159 161 159 159 160 159 155 156 160
187 189 190 186 181 182 177 171 170 166 160 157 160 161 153 151 152 156 159 151 135 133 142 149 155 151 155 156 180 162 160 161 159 157 158 160 160 161 160 160 159 158 161 165
179 175 174 173 169 163 165 163 163 159 152 146 147 151 147 147 148 146 139 138 138 137 150 157 155 137 144 162 166 160 159 159 158 157 158 160 162 164 165 166 165 165 169 171
164 159 157 156 150 148 145 143 144 146 145 141 143 149 150 146 148 152 149 139 145 154 157 146 128 129 153 174 165 163 162 161 161 162 160 160 163 165 166 168 168 171 175 183
161 153 148 144 143 145 139 132 128 128 131 132 134 139 146 145 141 137 129 128 128 143 135 119 126 142 176 167 160 160 158 158 160 164 163 163 164 164 164 170 178 183 187 195
143 141 141 145 148 140 130 127 125 125 127 127 130 135 142 141 141 135 130 132 136 140 132 130 138 156 168 157 154 152 152 149 150 155 160 164 168 168 172 182 191 190 191 197
135 137 132 134 130 131 138 132 127 131 133 128 125 125 123 123 127 132 132 135 134 135 138 141 150 163 155 150 149 150 152 154 160 169 167 169 171 170 171 177 178 187 194 199
123 117 117 114 114 115 119 123 126 131 131 130 126 125 128 129 132 135 137 139 142 141 139 140 143 144 146 149 145 145 149 155 160 164 168 175 176 178 173 173 182 184 195 190
Height
1487 1485 1486 1492 1496 1499 1500 1499 1504 1503 1502 1500 1502 1506 1510 1514 1516 1519 1522 1525 1527 1530 1532 1534 1537 1539 1541 1543 1544 1546 1547 1548 1549 1549 1550 1550 1550 1550 1550 1550 1550 1550 1550 1550
1493 1489 1489 1492 1492 1494 1497 1496 1497 1498 1500 1498 1503 1507 1510 1513 1515 1518 1521 1524 1526 1529 1531 1533 1536 1538 1540 1542 1544 1545 1547 1548 1548 1549 1549 1549 1550 1550 1550 1550 1550 1550 1550 1550
1495 1491 1494 1498 1491 1492 1494 1493 1495 1498 1498 1500 1503 1506 1509 1511 1514 1516 1519 1522 1525 1527 1529 1531 1534 1537 1539 1541 1543 1545 1546 1547 1548 1548 1549 1549 1550 1549 1549 1549 1550 1550 1550 1550
1490 1498 1509 1490 1484 1486 1490 1491 1492 1494 1496 1499 1503 1506 1509 1511 1513 1515 1518 1520 1523 1526 1528 1530 1533 1536 1538 1540 1542 1544 1545 1546 1547 1548 1549 1549 1549 1549 1549 1549 1550 1550 1550 1550
1490 1496 1494 1489 1487 1487 1491 1493 1492 1494 1496 1500 1503 1505 1508 1510 1512 1514 1516 1519 1521 1524 1527 1529 1532 1535 1537 1540 1541 1543 1544 1546 1547 1548 1548 1548 1549 1549 1549 1549 1550 1551 1551 1551
1490 1495 1498 1487 1484 1488 1490 1495 1493 1494 1496 1499 1501 1499 1504 1509 1511 1513 1515 1518 1520 1523 1526 1528 1531 1533 1536 1538 1540 1542 1543 1545 1546 1547 1547 1548 1548 1548 1549 1550 1550 1551 1552 1552
1488 1490 1483 1481 1485 1489 1497 1493 1492 1494 1496 1499 1499 1500 1505 1507 1510 1512 1514 1517 1520 1522 1525 1527 1530 1532 1535 1538 1539 1541 1542 1544 1545 1546 1547 1548 1548 1548 1549 1550 1551 1552 1552 1553
1484 1488 1488 1484 1485 1487 1490 1492 1493 1495 1497 1499 1501 1503 1504 1507 1509 1511 1513 1516 1519 1521 1523 1526 1528 1531 1533 1536 1538 1540 1541 1542 1544 1545 1547 1548 1548 1549 1549 1550 1551 1552 1553 1554
1479 1483 1485 1486 1488 1491 1492 1493 1494 1496 1497 1499 1501 1503 1505 1507 1509 1511 1513 1516 1518 1520 1523 1525 1528 1530 1533 1535 1537 1539 1540 1542 1544 1545 1546 1547 1548 1549 1550 1551 1553 1554 1555 1556
1482 1484 1487 1489 1490 1492 1493 1494 1495 1496 1497 1499 1500 1502 1505 1507 1509 1511 1513 1515 1518 1520 1522 1525 1527 1530 1532 1535 1537 1538 1540 1541 1543 1545 1546 1547 1549 1551 1552 1553 1554 1555 1556 1556
1482 1486 1488 1490 1492 1493 1493 1494 1495 1496 1497 1499 1501 1503 1504 1506 1508 1510 1513 1515 1518 1520 1522 1524 1526 1529 1531 1534 1536 1538 1540 1541 1543 1545 1546 1547 1549 1550 1552 1552 1553 1555 1556 1556
1480 1486 1487 1490 1492 1493 1494 1494 1495 1496 1498 1499 1501 1503 1504 1506 1508 1510 1513 1515 1517 1519 1522 1523 1526 1528 1530 1533 1535 1537 1539 1541 1543 1544 1546 1548 1549 1550 1551 1552 1553 1554 1554 1556
1486 1487 1489 1491 1492 1493 1494 1495 1496 1497 1498 1500 1502 1503 1504 1506 1508 1510 1512 1515 1517 1519 1521 1523 1525 1527 1529 1532 1534 1536 1538 1540 1542 1544 1545 1547 1548 1550 1551 1552 1553 1554 1555 1555
1487 1488 1490 1491 1493 1494 1494 1495 1496 1497 1499 1500 1502 1503 1504 1506 1508 1510 1512 1514 1516 1518 1521 1523 1525 1527 1528 1531 1533 1535 1537 1539 1541 1543 1545 1547 1548 1549 1551 1552 1554 1554 1555 1556
1488 1489 1490 1492 1493 1494 1495 1495 1496 1497 1499 1500 1501 1503 1504 1506 1508 1510 1512 1514 1516 1518 1520 1522 1524 1526 1528 1530 1532 1534 1536 1538 1540 1542 1544 1546 1547 1549 1551 1552 1554 1555 1555 1556
1487 1489 1490 1491 1492 1493 1494 1495 1496 1498 1499 1500 1501 1503 1504 1505 1507 1509 1511 1513 1515 1517 1519 1521 1523 1525 1527 1529 1530 1533 1535 1537 1539 1541 1542 1544 1546 1548 1550 1551 1553 1554 1555 1555
1487 1488 1489 1491 1492 1493 1494 1495 1496 1497 1499 1500 1501 1502 1503 1504 1506 1508 1511 1512 1514 1517 1519 1521 1522 1523 1525 1527 1530 1532 1533 1535 1537 1539 1541 1542 1544 1546 1548 1550 1551 1552 1553 1553
1485 1487 1488 1489 1491 1492 1493 1494 1495 1496 1497 1499 1500 1501 1502 1504 1505 1507 1510 1511 1513 1515 1518 1520 1521 1522 1524 1526 1528 1530 1532 1534 1536 1538 1539 1541 1543 1545 1547 1548 1549 1551 1551 1552
1484 1485 1487 1488 1489 1491 1492 1493 1494 1495 1496 1497 1499 1500 1501 1503 1505 1507 1509 1511 1512 1514 1516 1518 1520 1521 1523 1525 1527 1529 1531 1533 1535 1536 1538 1539 1542 1544 1545 1547 1548 1549 1550 1551
1482 1484 1485 1486 1487 1488 1490 1491 1492 1494 1495 1496 1497 1499 1500 1502 1504 1506 1508 1509 1511 1513 1514 1516 1518 1520 1522 1524 1526 1528 1530 1532 1534 1535 1537 1539 1541 1542 1544 1545 1546 1548 1549 1550
1481 1482 1483 1484 1486 1487 1488 1489 1490 1492 1493 1495 1496 1497 1499 1501 1503 1505 1507 1509 1510 1512 1513 1515 1517 1519 1521 1522 1525 1527 1529 1531 1533 1534 1536 1537 1539 1541 1543 1544 1545 1546 1548 1549
1480 1481 1482 1483 1484 1485 1486 1487 1489 1490 1492 1493 1495 1496 1498 1500 1502 1504 1506 1507 1508 1510 1512 1514 1516 1518 1519 1522 1524 1526 1528 1530 1531 1533 1534 1536 1538 1540 1541 1543 1544 1545 1547 1548
1478 1479 1481 1482 1482 1483 1485 1486 1488 1489 1490 1492 1493 1495 1497 1499 1501 1503 1504 1506 1508 1509 1511 1513 1515 1516 1518 1521 1523 1525 1527 1528 1530 1532 1533 1535 1537 1538 1540 1541 1543 1544 1545 1546
1477 1478 1479 1481 1482 1483 1484 1485 1487 1488 1490 1491 1493 1495 1497 1499 1500 1502 1504 1505 1506 1508 1510 1512 1514 1516 1518 1520 1522 1524 1526 1528 1529 1531 1533 1535 1536 1538 1539 1540 1542 1543 1543 1544
1476 1477 1478 1480 1481 1482 1484 1485 1486 1488 1490 1491 1493 1494 1496 1498 1500 1501 1503 1504 1506 1508 1510 1512 1513 1515 1518 1520 1522 1523 1525 1527 1529 1530 1532 1534 1536 1537 1538 1539 1540 1541 1542 1543
1475 1476 1478 1479 1480 1482 1483 1485 1486 1488 1490 1491 1492 1494 1496 1498 1499 1501 1503 1505 1506 1508 1510 1512 1514 1516 1518 1519 1521 1523 1525 1527 1528 1530 1532 1533 1535 1536 1537 1538 1539 1540 1540 1541
1475 1476 1478 1479 1481 1482 1483 1485 1487 1488 1490 1491 1492 1494 1496 1498 1500 1501 1503 1505 1507 1509 1511 1513 1514 1516 1517 1519 1521 1523 1525 1527 1528 1530 1531 1533 1534 1535 1536 1537 1538 1538 1539 1539